Regional Weather Roundup
Issued by NWS

Home | Current Version | Previous Version | Text Only | Print | Product List | Glossary Off
Versions: 1 2 3 4 5 6 7 8 9 10 11 12 13 14 15 16 17 18 19 20 21 22 23 24 25 26 27 28 29 30 31 32 33 34 35 36 37 38 39 40 41 42 43 44 45 46 47 48 49 50

000
ASUS43 KIND 010209
RWRIN

WEATHER ROUNDUP FOR INDIANA
NATIONAL WEATHER SERVICE INDIANAPOLIS IN
900 PM EST SAT JAN 31 2015

NOTE: "FAIR" INDICATES FEW OR NO CLOUDS BELOW 12,000 FEET WITH NO
SIGNIFICANT WEATHER AND/OR OBSTRUCTIONS TO VISIBILITY.

* - STATION DOES NOT REPORT WEATHER SUCH AS PRECIPITATION OR FOG.

+ - STATION NOT QUALITY CONTROLLED BY THE NATIONAL WEATHER SERVICE.
    USE DATA WITH CAUTION...ESPECIALLY DEWPOINT AND RELATIVE
    HUMIDITY OBSERVATIONS.

INZ001>003-010>013-019-020-010300-
NORTHWEST INDIANA

CITY           SKY/WX    TMP DP  RH WIND       PRES   REMARKS
GARY /AIRPORT/ LGT RAIN  36  30  80 SW5       30.18F
KNOX *+        CLOUDY    32  30  93 CALM      30.18S VSB 1
LA PORTE +     CLOUDY    35  33  90 SW5       30.18S FOG     WCI  31
MICHIGAN CITY+ CLOUDY    34  27  75 SW3       30.18F
MONTICELLO +   LGT RAIN  32  32  99 SW10      30.20S WCI  24
RENSSELAER +   LGT SNOW  34  34 100 SW10      30.19S WCI  26
VALPARAISO     CLOUDY    33  32  96 CALM      30.18S FOG

$$

LMZ046-743>745-010300-
SOUTHERN LAKE MICHIGAN

STATION/POSITION TIME  TEMP WIND        PRES
                       AIR  DIR/SP/G
                 (UTC) (F)  (DEG/KT/KT) (MB)
MICHIGAN CITY    0100   34  230/  2/  3   N/A

$$

INZ004-005-014>016-021>024-010300-
NORTH CENTRAL INDIANA

CITY           SKY/WX    TMP DP  RH WIND       PRES   REMARKS
GOSHEN         CLOUDY    34  28  79 SW7       30.17F WCI  28
LOGANSPORT +   LGT SNOW  32  32 100 SW12      30.21S WCI  23
PERU/GRISSOM   LGT SNOW  33  31  92 SW12      30.20S FOG     WCI  24
ROCHESTER +    CLOUDY    36  32  87 SW7       30.18F
SOUTH BEND     CLOUDY    35  28  75 SW5       30.18S WCI  31
WARSAW +       CLOUDY    34  30  86 SW5       30.18F WCI  30

$$

INZ006>009-017-018-025>027-010300-
NORTHEAST INDIANA

CITY           SKY/WX    TMP DP  RH WIND       PRES   REMARKS
ANGOLA *+      CLOUDY    32  27  80 SW3       30.16F
AUBURN +       CLOUDY    34  27  75 SW3       30.19S
FORT WAYNE     CLOUDY    35  28  75 SW10      30.19F WCI  27
HUNTINGTON +   CLOUDY    34  26  71 SW8       30.19F WCI  27

$$

INZ028-029-035-036-043>045-051>053-010300-
WEST CENTRAL INDIANA

CITY           SKY/WX    TMP DP  RH WIND       PRES   REMARKS
CRAWFORDSVL +  LGT SNOW  31  27  88 S6        30.23F WCI  25
GREENCASTLE +  MIX PCPN  32  28  86 CALM      30.24F
LAFAYETTE      LGT SNOW  32  31  96 SW6       30.22F FOG     WCI  26
TERRE HAUTE    LGT RAIN  33  30  88 E7        30.23F FOG     WCI  27

$$

INZ030>032-037>040-046>048-054>057-064-065-010300-
CENTRAL INDIANA

CITY           SKY/WX    TMP DP  RH WIND       PRES   REMARKS
CP ATTERBURY + LGT SNOW  34  28  80 SW3       30.26F
COLUMBUS       LGT SNOW  34  25  69 SW7       30.28S FOG     WCI  28
FRANKFORT +    LGT SNOW N/A N/A N/A S8        30.23F
GREENWOOD *+   CLOUDY    32  28  86 SW6       30.25F WCI  26
INDIANAPOLIS   LGT SNOW  30  30 100 SW6       30.24F FOG     WCI  24
-EAGLE CREEK   LGT SNOW  32  30  92 S6        30.23F FOG     WCI  26
KOKOMO *+      CLOUDY    34  28  80 SW12      30.22R WCI  25
MARION +       LGT SNOW  33  28  81 SW10      30.21S WCI  25
MT COMFORT *+  CLOUDY    32  32 100 SW9       30.25S WCI  24
SHELBYVILLE    LGT SNOW  34  30  85 SW8       30.25S FOG     WCI  27
ZIONSVILLE +   LGT SNOW  33  30  89 SW8       30.23F WCI  25

$$

INZ033-034-041-042-049-050-058-059-010300-
EAST CENTRAL INDIANA

CITY           SKY/WX    TMP DP  RH WIND       PRES   REMARKS
MUNCIE         LGT SNOW  33  29  85 SW9       30.21S FOG     WCI  25

$$

INZ060-061-067>069-081>083-085>088-010300-
SOUTHWEST INDIANA

CITY           SKY/WX    TMP DP  RH WIND       PRES   REMARKS
EVANSVILLE     CLOUDY    40  26  57 E6        30.24F
HUNTINGBURG *+ CLOUDY    36  25  64 SE5       30.25F
WASHINGTON +   CLOUDY    36  24  61 S6        30.25F

$$

INZ062-063-066-070>080-084-089>092-010300-
SOUTH CENTRAL AND SOUTHEAST INDIANA

CITY           SKY/WX    TMP DP  RH WIND       PRES   REMARKS
BLOOMINGTON    LGT RAIN  33  30  88 E7        30.23F WCI  27
NORTH VERNON + FLURRIES  36  27  69 SW6       30.28S
SEYMOUR +      RAIN      37  27  65 CALM      30.27F

$$




USA.gov is the U.S. government's official web portal to all federal, state and local government web resources and services.